Weather History for KBQP - May, 2014

Change the Weather History Date:

Friday, May 16, 2014

  Actual Average (KMLU) Record (KMLU)
Temperature  
Mean Temperature 63 °F 74 °F  
Max Temperature 76 °F 85 °F 94 °F (1963)
Min Temperature 50 °F 63 °F 47 °F (1973)
Degree Days  
Heating Degree Days 2 0  
Month to date heating degree days 3  
Since 1 July heating degree days 2227  
Cooling Degree Days 0 9  
Month to date cooling degree days 120  
Year to date cooling degree days 267  
Growing Degree Days 13 (Base 50)    
Moisture  
Dew Point 52 °F    
Average Humidity 71    
Maximum Humidity 97    
Minimum Humidity 39    
Precipitation  
Precipitation 0.02 in 0.18 in 2.28 in (1953)
Month to date precipitation 2.75  
Year to date precipitation 21.61  
Snow  
Snow 0.00 in - - ()
Month to date snowfall  
Since 1 July snowfall  
Snow Depth -    
Sea Level Pressure  
Sea Level Pressure 30.12 in    
Wind  
Wind Speed 2 mph (SSE)    
Max Wind Speed 8 mph    
Max Gust Speed -    
Visibility 10 miles    
Events Rain , Thunderstorm    
T = Trace of Precipitation, MM = Missing Value Source: NWS Daily Summary

Daily Weather History Graph

Daily Weather History Graph

Search for Another Location

Airport or City:

Trip Planner

Search our weather history database for the weather conditions in past years. The results will help you decide how hot, cold, wet, or windy it might be!

Date:

Astronomy

May. 16, 2014 Rise Set
Actual Time 6:07 AM CDT 8:00 PM CDT
Civil Twilight 5:40 AM CDT 8:27 PM CDT
Nautical Twilight 5:07 AM CDT 9:00 PM CDT
Astronomical Twilight 4:32 AM CDT 9:35 PM CDT
Moon 10:07 PM CDT (5/16) 7:50 AM CDT (5/16)
Length of Visible Light 14h 46m
Length of Day
13h 52m
Waning Gibbous, 95% of the Moon is Illuminated
May 16
Waning Gibbous
May 21
Last Quarter
May 28
New
Jun 5
First Quarter
Jun 12
Full

Hourly Weather History & Observations

Time (CDT) Temp. Dew Point Humidity Pressure Visibility Wind Dir Wind Speed Gust Speed Precip Events Conditions
12:15 AM 51.8 °F 50.5 °F 95% 30.18 in 7.0 mi Calm Calm - N/A Thunderstorm Scattered Clouds
12:35 AM 50.4 °F 49.3 °F 96% 30.18 in 5.0 mi Calm Calm - N/A   Clear
1:15 AM 52.3 °F 51.4 °F 97% 30.21 in 7.0 mi Calm Calm - N/A   Mostly Cloudy
1:35 AM 52.7 °F 51.8 °F 97% 30.21 in 10.0 mi Calm Calm - N/A Rain Light Rain
1:55 AM 52.9 °F 51.6 °F 95% 30.19 in 10.0 mi Calm Calm - N/A   Mostly Cloudy
2:15 AM 52.7 °F 51.1 °F 94% 30.17 in 10.0 mi South 5.8 mph - 0.01 in   Scattered Clouds
2:35 AM 52.7 °F 50.9 °F 94% 30.18 in 10.0 mi SSW 4.6 mph - 0.01 in   Mostly Cloudy
2:55 AM 52.7 °F 50.7 °F 93% 30.17 in 10.0 mi Calm Calm - 0.01 in   Mostly Cloudy
3:15 AM 53.1 °F 51.3 °F 94% 30.17 in 10.0 mi SSW 4.6 mph - N/A   Overcast
3:35 AM 53.6 °F 51.4 °F 92% 30.17 in 10.0 mi SSW 3.5 mph - N/A Rain Light Rain
3:55 AM 53.6 °F 51.8 °F 94% 30.17 in 10.0 mi Calm Calm - N/A   Overcast
4:15 AM 53.8 °F 51.6 °F 92% 30.17 in 10.0 mi Calm Calm - N/A Rain Light Rain
4:35 AM 53.6 °F 50.9 °F 91% 30.16 in 10.0 mi SSW 3.5 mph - N/A   Mostly Cloudy
4:55 AM 53.8 °F 51.1 °F 91% 30.15 in 10.0 mi Calm Calm - 0.01 in   Mostly Cloudy
5:15 AM 53.6 °F 51.8 °F 94% 30.15 in 10.0 mi Calm Calm - N/A   Overcast
5:35 AM 54.0 °F 52.3 °F 94% 30.15 in 10.0 mi Calm Calm - N/A   Overcast
5:55 AM 54.0 °F 52.7 °F 95% 30.16 in 10.0 mi Calm Calm - N/A   Overcast
6:15 AM 53.6 °F 52.3 °F 95% 30.17 in 10.0 mi North 3.5 mph - N/A   Overcast
6:35 AM 54.0 °F 52.3 °F 94% 30.17 in 10.0 mi Calm Calm - N/A   Overcast
6:55 AM 54.0 °F 52.3 °F 94% 30.17 in 10.0 mi Calm Calm - N/A   Overcast
7:15 AM 54.1 °F 52.7 °F 95% 30.18 in 10.0 mi Calm Calm - N/A   Overcast
7:35 AM 54.7 °F 53.1 °F 94% 30.18 in 10.0 mi Calm Calm - N/A   Overcast
7:55 AM 56.3 °F 53.2 °F 89% 30.17 in 10.0 mi Calm Calm - N/A   Mostly Cloudy
8:15 AM 57.2 °F 54.5 °F 91% 30.17 in 10.0 mi Calm Calm - N/A   Mostly Cloudy
8:35 AM 59.2 °F 54.9 °F 86% 30.17 in 10.0 mi Calm Calm - N/A   Clear
8:55 AM 60.6 °F 54.5 °F 80% 30.17 in 10.0 mi SSE 3.5 mph - N/A   Clear
9:15 AM 63.0 °F 55.0 °F 75% 30.18 in 10.0 mi Calm Calm - N/A   Clear
9:35 AM 64.0 °F 55.2 °F 73% 30.18 in 10.0 mi Calm Calm - N/A   Scattered Clouds
9:55 AM 64.8 °F 54.0 °F 68% 30.18 in 10.0 mi Calm Calm - N/A   Overcast
10:15 AM 65.8 °F 52.3 °F 62% 30.18 in 10.0 mi Calm Calm - N/A   Overcast
10:35 AM 67.5 °F 51.1 °F 56% 30.18 in 10.0 mi SSW 5.8 mph - N/A   Overcast
10:55 AM 68.2 °F 49.1 °F 50% 30.18 in 10.0 mi SSW 3.5 mph - N/A   Overcast
11:15 AM 69.1 °F 48.4 °F 48% 30.17 in 10.0 mi South 4.6 mph - N/A   Overcast
11:35 AM 69.8 °F 46.2 °F 43% 30.17 in 10.0 mi SW 4.6 mph - N/A   Scattered Clouds
11:55 AM 71.1 °F 44.6 °F 39% 30.16 in 10.0 mi West 3.5 mph - N/A   Clear
12:15 PM 71.8 °F 46.4 °F 40% 30.16 in 10.0 mi WSW 3.5 mph - N/A   Clear
12:35 PM 73.4 °F 48.0 °F 41% 30.15 in 10.0 mi Calm Calm - N/A   Clear
12:55 PM 73.0 °F 47.8 °F 41% 30.14 in 10.0 mi SW 4.6 mph - N/A   Clear
1:15 PM 73.0 °F 46.9 °F 39% 30.13 in 10.0 mi SE 4.6 mph - N/A   Clear
1:35 PM 73.4 °F 47.7 °F 40% 30.13 in 10.0 mi ENE 4.6 mph - N/A   Clear
1:55 PM 73.2 °F 47.5 °F 40% 30.12 in 10.0 mi South 6.9 mph - N/A   Scattered Clouds
2:15 PM 75.0 °F 49.5 °F 40% 30.12 in 10.0 mi South 5.8 mph - N/A   Mostly Cloudy
2:35 PM 74.8 °F 48.6 °F 39% 30.11 in 10.0 mi WSW 4.6 mph - N/A   Scattered Clouds
2:55 PM 75.6 °F 49.5 °F 40% 30.11 in 10.0 mi SW 8.1 mph - N/A   Clear
3:15 PM 74.7 °F 48.7 °F 40% 30.10 in 10.0 mi SE 4.6 mph - N/A   Scattered Clouds
3:35 PM 74.8 °F 50.7 °F 43% 30.09 in 10.0 mi South 6.9 mph - N/A   Mostly Cloudy
3:55 PM 76.1 °F 50.5 °F 41% 30.08 in 10.0 mi South 3.5 mph - N/A   Scattered Clouds
4:15 PM 75.0 °F 50.9 °F 43% 30.07 in 10.0 mi South 5.8 mph - N/A   Scattered Clouds
4:35 PM 75.4 °F 51.6 °F 43% 30.07 in 10.0 mi South 3.5 mph - N/A   Clear
4:55 PM 73.9 °F 52.3 °F 47% 30.07 in 10.0 mi SSW 3.5 mph - N/A   Clear
5:15 PM 74.5 °F 52.5 °F 46% 30.07 in 10.0 mi SSE 3.5 mph - N/A   Clear
5:35 PM 75.2 °F 52.3 °F 45% 30.06 in 10.0 mi South 3.5 mph - N/A   Clear
5:55 PM 74.5 °F 52.7 °F 46% 30.06 in 10.0 mi Calm Calm - N/A   Clear
6:15 PM 74.8 °F 53.8 °F 48% 30.06 in 10.0 mi Calm Calm - N/A   Clear
6:35 PM 74.3 °F 53.8 °F 49% 30.06 in 10.0 mi Calm Calm - N/A   Clear
6:55 PM 72.5 °F 57.4 °F 59% 30.05 in 10.0 mi Calm Calm - N/A   Clear
7:15 PM 70.0 °F 59.0 °F 68% 30.06 in 10.0 mi Calm Calm - N/A   Clear
7:35 PM 68.0 °F 59.5 °F 74% 30.05 in 10.0 mi Calm Calm - N/A   Clear
7:55 PM 65.7 °F 59.0 °F 79% 30.05 in 10.0 mi Calm Calm - N/A   Clear
8:15 PM 64.6 °F 57.4 °F 77% 30.05 in 10.0 mi Calm Calm - N/A   Clear
8:35 PM 64.2 °F 56.5 °F 76% 30.04 in 10.0 mi East 4.6 mph - N/A   Clear
8:55 PM 63.3 °F 57.2 °F 80% 30.04 in 10.0 mi Calm Calm - N/A   Clear
9:15 PM 62.2 °F 57.0 °F 83% 30.04 in 10.0 mi East 3.5 mph - N/A   Clear
9:35 PM 61.7 °F 56.3 °F 82% 30.05 in 10.0 mi East 3.5 mph - N/A   Clear
9:55 PM 61.7 °F 56.5 °F 83% 30.05 in 10.0 mi East 4.6 mph - N/A   Clear
10:15 PM 60.4 °F 56.5 °F 87% 30.06 in 10.0 mi East 3.5 mph - N/A   Clear
10:35 PM 60.4 °F 56.3 °F 86% 30.06 in 10.0 mi ENE 3.5 mph - N/A   Clear
10:55 PM 60.1 °F 56.5 °F 88% 30.06 in 10.0 mi East 3.5 mph - N/A   Clear
11:15 PM 61.7 °F 56.1 °F 82% 30.06 in 10.0 mi East 4.6 mph - N/A   Clear
11:35 PM 61.7 °F 55.9 °F 81% 30.05 in 10.0 mi East 4.6 mph - N/A   Clear
11:55 PM 61.3 °F 56.3 °F 83% 30.04 in 10.0 mi East 3.5 mph - N/A   Clear